This is the latest recevied weather packets stored in our database for station/object N9OJR. If no packets are shown the sender has not sent any weather packets the latest 10 day(s).
| Time | Temp. | Humidity | Pressure | Rain* | Wind** | Luminosity | Snow |
|---|---|---|---|---|---|---|---|
| 1777674051 | 7.22° C | 80% | 1010.7 hPa | 0 mm | - | 124 W/m² | - |
| 1777673747 | 7.22° C | 81% | 1010.4 hPa | 0 mm | - | 150 W/m² | - |
| 1777673444 | 7.22° C | 81% | 1010.3 hPa | 0 mm | - | 150 W/m² | - |
| 1777673142 | 7.22° C | 81% | 1010.2 hPa | 0 mm | - | 155 W/m² | - |
| 1777672838 | 7.78° C | 82% | 1010.2 hPa | 0 mm | - | 161 W/m² | - |
| 1777672534 | 7.78° C | 85% | 1010 hPa | 0 mm | - | 177 W/m² | - |
| 1777672230 | 6.67° C | 85% | 1009.9 hPa | 0 mm | - | 204 W/m² | - |
| 1777671926 | 6.11° C | 85% | 1009.9 hPa | 0 mm | - | 258 W/m² | - |
| 1777671622 | 6.11° C | 86% | 1010.1 hPa | 0 mm | - | 167 W/m² | - |
| 1777671319 | 6.67° C | 88% | 1010.1 hPa | 0 mm | - | 196 W/m² | - |
| 1777671015 | 6.11° C | 90% | 1010 hPa | 0 mm | - | 189 W/m² | - |
| 1777670711 | 6.11° C | 91% | 1009.9 hPa | 0 mm | - | 352 W/m² | - |
| 1777670409 | 5.56° C | 92% | 1010 hPa | 0 mm | - | 303 W/m² | - |
| 1777670105 | 5.56° C | 93% | 1009.8 hPa | 0 mm | - | 151 W/m² | - |
| 1777669803 | 5° C | 94% | 1009.7 hPa | 0 mm | - | 191 W/m² | - |
| 1777669499 | 5.56° C | 94% | 1009.7 hPa | 0 mm | - | 97 W/m² | - |
| 1777669196 | 5.56° C | 94% | 1009.6 hPa | 0 mm | - | 157 W/m² | - |
| 1777668892 | 5.56° C | 95% | 1009.5 hPa | 0 mm | - | 88 W/m² | - |
| 1777668590 | 5.56° C | 94% | 1009.4 hPa | 0 mm | - | 101 W/m² | - |
| 1777668285 | 6.11° C | 94% | 1009.4 hPa | 0 mm | - | 118 W/m² | - |
| 1777667982 | 6.67° C | 94% | 1009.1 hPa | 0 mm | - | 71 W/m² | - |
| 1777667679 | 6.67° C | 95% | 1009 hPa | 0 mm | - | 242 W/m² | - |
| 1777667377 | 6.11° C | 95% | 1009.1 hPa | 0 mm | - | 455 W/m² | - |
| 1777667073 | 6.11° C | 95% | 1008.8 hPa | 0 mm | - | 92 W/m² | - |
| 1777666770 | 6.67° C | 97% | 1008.8 hPa | 0 mm | - | 260 W/m² | - |
* Rain latest hour (hover to see other rain measurements)
** Current wind speed in m/s (hover to see current wind gust speed)